[[{"header":{"parameterUnit":"m.s-1","parameterCategory":1,"la1":30.2991,"la2":30.254,"lo1":-89.0895,"lo2":-89.0444,"dy":0.0017,"dx":0.0017,"nx":28,"ny":28,"refTime":"2024-03-05T03:00:00:Z","depth":0,"parameterNumber":2,"parameterNumberName":"U-component_of_WINDS"},"data":[0,0,0,0,0,0,0,0,0,0,0,0,0,0,0,0,0,0,0,0,0,0,0,0,0,0,0,0,0,0,0,0,0,0,0,0,0,0,0,0,0,0,0,0,0,0,0,0,0,0,0,0,0,0,0,0,0,0,-6.0534,-6.0534,0,-6.0619,-6.062,-6.0621,-6.0587,-6.0585,-6.0583,-6.0581,-6.0663,-6.0667,-6.0671,0,0,0,0,0,0,0,0,0,0,0,0,0,-6.0335,-6.0339,-6.0533,-6.0535,-6.0536,-6.0619,-6.062,-6.0622,-6.0588,-6.0585,-6.0583,-6.058,-6.0662,-6.0666,-6.0671,0,0,0,0,0,0,0,0,0,0,0,0,0,-6.0421,-6.034,-6.0533,-6.0529,-6.0529,-6.0619,-6.062,-6.0622,-6.0588,-6.0585,-6.0582,-6.0579,-6.066,-6.0666,-6.0672,-6.0769,0,0,-6.069,-6.0693,0,0,0,0,0,0,0,0,-6.0416,-6.0428,-6.0528,-6.0529,-6.053,-6.059,-6.058,-6.0671,-6.0589,-6.0566,-6.0581,-6.0578,-6.064,-6.0648,-6.067,-6.0773,-6.0776,-6.0691,-6.0694,-6.0697,-6.0699,0,0,0,0,0,0,0,-6.041,-6.0425,-6.0567,-6.053,-6.0531,-6.0521,-6.053,-6.0597,-6.0618,-6.0567,-6.0565,-6.0576,-6.064,-6.0665,-6.0672,-6.0777,-6.0691,-6.0696,-6.07,-6.0702,-6.0965,-6.0968,0,0,0,0,0,0,-6.0405,-6.042,-6.0564,-6.057,-6.0465,-6.0527,-6.0537,-6.0573,-6.0618,-6.0622,-6.0579,-6.0574,-6.0656,-6.0665,-6.0675,-6.0791,-6.0697,-6.0703,-6.0706,-6.0961,-6.0965,-6.0969,0,0,0,0,0,0,-6.0401,-6.0418,-6.0561,-6.0494,-6.0512,-6.0534,-6.0575,-6.0577,-6.0601,-6.0626,-6.0629,-6.06,-6.0654,-6.0666,-6.0746,-6.0793,-6.0705,-6.0711,-6.0957,-6.0962,-6.0967,-6.1025,0,0,0,0,0,0,-6.0395,-6.0417,-6.0455,-6.0496,-6.0516,-6.0632,-6.0578,-6.0581,-6.0612,-6.0607,-6.0647,-6.0651,-6.0652,-6.0738,-6.0752,-6.08,-6.0716,-6.0953,-6.096,-6.0965,-6.1019,-6.1031,-6.1042,0,0,0,0,0,-6.0388,-6.0466,-6.0457,-6.0474,-6.0564,-6.0635,-6.0646,-6.0649,-6.0616,-6.0654,-6.0671,-6.0649,-6.0787,-6.0746,-6.0762,-6.0813,-6.095,-6.0958,-6.0965,-6.1014,-6.1029,-6.1042,0,0,0,0,0,0,-6.0427,-6.0471,-6.0461,-6.0555,-6.0592,-6.0629,-6.0676,-6.0665,-6.071,-6.0703,-6.0702,-6.0711,-6.0794,-6.0812,-6.0766,-6.091,-6.0863,-6.0874,-6.0895,-6.0909,-6.0921,-6.0913,-6.0721,0,0,0,0,0,-6.0447,-6.0503,-6.0538,-6.0617,-6.0637,-6.0654,-6.0685,-6.0684,-6.0721,-6.0736,-6.0758,-6.0794,-6.0845,-6.0879,-6.0927,-6.1023,-6.103,-6.1066,-6.1077,-6.1087,-6.1095,-6.1147,-6.1163,-6.0994,-6.0994,-6.0993,0,0,-6.0487,-6.0518,-6.0553,-6.0626,-6.0654,-6.0711,-6.0667,-6.0728,-6.077,-6.0745,-6.0822,-6.084,-6.088,-6.0968,-6.1008,-6.0985,-6.1144,-6.1096,-6.1103,-6.1107,-6.1156,-6.1172,-6.1187,-6.0999,-6.0998,-6.0997,0,0,-6.0589,-6.0619,-6.0689,-6.072,-6.0765,-6.0777,-6.0794,-6.0834,-6.0846,-6.0924,-6.0907,-6.0956,-6.1045,-6.1074,-6.11,-6.1218,-6.12,-6.1234,-6.1293,-6.1344,-6.1357,-6.1369,-6.141,-6.1425,-6.1244,-6.1244,-6.1244,0,-6.0632,-6.0719,-6.0725,-6.079,-6.0822,-6.0805,-6.0875,-6.0904,-6.0962,-6.0983,-6.0958,-6.1071,-6.1096,-6.1191,-6.122,-6.1243,-6.1261,-6.1228,-6.1356,-6.1367,-6.1378,-6.1417,-6.1433,-6.1247,-6.1247,-6.1247,-6.1246,0,-6.077,-6.0831,-6.0882,-6.0941,-6.098,-6.1046,-6.1061,-6.1099,-6.1096,-6.111,-6.119,-6.1221,-6.1276,-6.13,-6.1296,-6.1395,-6.1379,-6.1355,-6.1308,-6.1398,-6.1435,-6.145,-6.1253,-6.1251,-6.125,-6.1249,0,0,-6.0894,-6.096,-6.0978,-6.1006,-6.1057,-6.1103,-6.1169,-6.1226,-6.1258,-6.1299,-6.1354,-6.1431,-6.141,-6.144,-6.144,-6.1485,-6.1576,-6.1456,-6.1456,-6.1475,-6.1686,-6.1702,-6.172,-6.1567,-6.1569,-6.1572,-6.1682,0,-6.0999,-6.1117,-6.1126,-6.1232,-6.1288,-6.1276,-6.1333,-6.137,-6.1386,-6.1435,-6.1452,-6.1507,-6.1475,-6.1493,-6.1538,-6.1556,-6.1618,-6.1548,-6.1615,-6.1617,-6.1603,-6.1739,-6.1755,-6.1858,-6.1697,-6.1699,-6.1701,0,-6.1136,-6.1185,-6.1298,-6.1343,-6.1367,-6.1418,-6.1472,-6.152,-6.1561,-6.157,-6.1606,-6.1601,-6.1668,-6.1622,-6.1714,-6.1666,-6.1694,-6.1708,-6.1712,-6.1715,-6.1662,-6.1744,-6.1891,-6.1906,-6.1724,-6.1722,-6.172,0,-6.1213,-6.1308,-6.1387,-6.1412,-6.1467,-6.1504,-6.1528,-6.1567,-6.1601,-6.1648,-6.167,-6.1724,-6.1752,-6.1793,-6.1802,-6.1768,-6.1894,-6.1848,-6.1901,-6.1901,-6.1925,-6.1922,-6.2076,-6.1948,-6.1948,-6.1947,-6.1947,0,-6.1327,-6.1396,-6.1423,-6.1472,-6.1549,-6.1559,-6.1634,-6.1656,-6.1692,-6.1744,-6.1737,-6.1785,-6.1796,-6.1846,-6.1854,-6.1928,-6.1942,-6.1949,-6.195,-6.1948,-6.1947,-6.1964,-6.1956,-6.1951,-6.1951,-6.195,-6.1949,0,-6.1424,-6.1446,-6.1532,-6.1579,-6.1593,-6.1647,-6.1686,-6.1733,-6.175,-6.1815,-6.1831,-6.1857,-6.1917,-6.1931,-6.2001,-6.2006,-6.2094,-6.2089,-6.208,-6.2079,-6.213,-6.2125,-6.2298,-6.2321,-6.218,-6.2181,-6.2183,0,-6.1494,-6.1548,-6.1602,-6.1638,-6.1665,-6.1722,-6.1758,-6.1771,-6.1809,-6.1863,-6.1902,-6.1962,-6.2009,-6.2104,-6.2128,-6.2182,-6.2177,-6.2234,-6.2184,-6.2181,-6.2175,-6.2171,-6.2176,-6.2242,-6.2243,-6.2245,-6.2246,0,-6.1616,-6.1625,-6.1678,-6.1737,-6.1781,-6.1827,-6.187,-6.19,-6.1919,-6.1962,-6.2024,-6.2061,-6.2135,-6.2193,-6.2248,-6.2271,-6.2261,-6.2262,-6.2277,-6.2274,-6.2266,-6.2269,-6.2103,-6.2257,-6.2256,-6.2255,-6.2254,-6.2254,-6.17,-6.1747,-6.1794,-6.1854,-6.189,-6.1932,-6.1978,-6.2003,-6.2056,-6.2118,-6.2123,-6.219,-6.2233,-6.2306,-6.2333,-6.2385,-6.2367,-6.2389,-6.2394,-6.2398,-6.2402,-6.2261,-6.2395,-6.2395,-6.2395,-6.2395,-6.2394,0,-6.1819,-6.185,-6.1906,-6.1969,-6.2017,-6.2009,-6.2057,-6.2097,-6.2157,-6.2199,-6.2248,-6.232,-6.2377,-6.2408,-6.2465,-6.25,-6.2497,-6.2515,-6.251,-6.2516,-6.2415,-6.2396,-6.2516,-6.2516,-6.2516,-6.2516,-6.2516,-6.2516,-6.1887,-6.1966,-6.1982,-6.2079,-6.2108,-6.2177,-6.2205,-6.2244,-6.2277,-6.2359,-6.2408,-6.2429,-6.2466,-6.2527,-6.2579,-6.2586,-6.2607,-6.2626,-6.2631,-6.2535,-6.2523,-6.2511,-6.2493,-6.2631,-6.2631,-6.2726,-6.2727,-6.2728]},{"header":{"parameterUnit":"m.s-1","parameterCategory":1,"la1":30.2991,"la2":30.254,"lo1":-89.0895,"lo2":-89.0444,"dy":0.0017,"dx":0.0017,"nx":28,"ny":28,"refTime":"2024-03-05T03:00:00:Z","depth":0,"parameterNumber":3,"parameterNumberName":"V-component_of_WINDS"},"data":[0,0,0,0,0,0,0,0,0,0,0,0,0,0,0,0,0,0,0,0,0,0,0,0,0,0,0,0,0,0,0,0,0,0,0,0,0,0,0,0,0,0,0,0,0,0,0,0,0,0,0,0,0,0,0,0,0,0,1.0949,1.095,0,1.0999,1.1,1.1,1.1071,1.1072,1.1074,1.1075,1.1123,1.1123,1.1123,0,0,0,0,0,0,0,0,0,0,0,0,0,1.0913,1.0914,1.0949,1.095,1.095,1.0999,1.1,1.1,1.1071,1.1072,1.1074,1.1075,1.1123,1.1123,1.1123,0,0,0,0,0,0,0,0,0,0,0,0,0,1.0942,1.0914,1.0949,1.0992,1.0996,1.0999,1.1,1.1001,1.1071,1.1072,1.1074,1.1076,1.1123,1.1123,1.1123,1.1088,0,0,1.1124,1.1124,0,0,0,0,0,0,0,0,1.0941,1.0944,1.0985,1.0989,1.0993,1.1031,1.1005,1.103,1.107,1.1042,1.1075,1.1077,1.1091,1.1094,1.1099,1.109,1.1092,1.1124,1.1124,1.1124,1.1124,0,0,0,0,0,0,0,1.0939,1.0942,1.0969,1.0985,1.099,1.1008,1.1014,1.101,1.1055,1.1045,1.105,1.1055,1.1093,1.1098,1.11,1.1093,1.1124,1.1124,1.1124,1.1124,1.1059,1.1058,0,0,0,0,0,0,1.0931,1.094,1.0967,1.097,1.0971,1.1007,1.1014,1.1017,1.1056,1.1063,1.1053,1.1058,1.1097,1.11,1.1102,1.1065,1.1124,1.1124,1.1124,1.1061,1.1059,1.1057,0,0,0,0,0,0,1.093,1.0932,1.0965,1.0957,1.0962,1.1005,1.1008,1.1017,1.1022,1.1062,1.107,1.105,1.1099,1.1102,1.1092,1.1068,1.1124,1.1125,1.1063,1.106,1.1058,1.0989,0,0,0,0,0,0,1.0928,1.0932,1.0919,1.0956,1.0962,1.0954,1.1007,1.1017,1.1023,1.1029,1.1062,1.1069,1.11,1.1091,1.1092,1.1069,1.1125,1.1066,1.1062,1.1059,1.0994,1.0984,1.0976,0,0,0,0,0,1.0927,1.0896,1.0918,1.0921,1.0947,1.0952,1.0956,1.0994,1.102,1.1008,1.1034,1.1068,1.107,1.1089,1.1091,1.1068,1.1067,1.1063,1.1059,1.0998,1.0986,1.0977,0,0,0,0,0,0,1.0854,1.0902,1.0926,1.0907,1.0925,1.0964,1.095,1.098,1.0991,1.0996,1.1042,1.1049,1.1033,1.1049,1.107,1.1036,1.1074,1.107,1.1027,1.1016,1.1007,1.1004,1.1125,0,0,0,0,0,1.0836,1.0837,1.0878,1.0858,1.0866,1.0906,1.0909,1.0937,1.0957,1.0965,1.099,1.1008,1.1013,1.1015,1.1022,1.0996,1.1005,1.0981,1.0972,1.0965,1.0961,1.0951,1.0941,1.1043,1.1043,1.1043,0,0,1.0799,1.0825,1.0822,1.0844,1.0861,1.0861,1.0912,1.0909,1.0909,1.0964,1.0957,1.0976,1.0998,1.0981,1.0974,1.0994,1.0935,1.096,1.0954,1.0954,1.0945,1.0936,1.0927,1.104,1.1041,1.1041,0,0,1.0731,1.075,1.0736,1.0753,1.0779,1.0806,1.0803,1.0837,1.0852,1.0846,1.0888,1.0888,1.0895,1.091,1.0919,1.0858,1.0889,1.0858,1.0813,1.0802,1.0794,1.0787,1.0767,1.0759,1.0854,1.0854,1.0854,0,1.0681,1.0683,1.0725,1.072,1.0728,1.078,1.0766,1.0779,1.0806,1.081,1.0832,1.0843,1.0862,1.085,1.0835,1.0839,1.0837,1.0855,1.0792,1.0786,1.078,1.0761,1.0753,1.085,1.0851,1.0851,1.0851,0,1.0621,1.0622,1.0607,1.0633,1.064,1.063,1.067,1.0671,1.0699,1.0723,1.0716,1.0741,1.0754,1.0753,1.0778,1.0744,1.0756,1.0784,1.0823,1.0766,1.0749,1.0742,1.0845,1.0846,1.0847,1.0848,0,0,1.051,1.056,1.0554,1.0567,1.06,1.0601,1.0593,1.0608,1.0609,1.0625,1.0621,1.0626,1.0653,1.0662,1.069,1.068,1.0632,1.071,1.0712,1.0696,1.0598,1.0577,1.0568,1.0653,1.0652,1.0651,1.0596,0,1.045,1.0442,1.0479,1.0461,1.0463,1.0512,1.0506,1.0525,1.0548,1.0552,1.0577,1.0581,1.0615,1.0622,1.0614,1.064,1.0613,1.0644,1.065,1.065,1.0645,1.0559,1.0538,1.0485,1.059,1.0589,1.0588,0,1.0379,1.0393,1.0375,1.0411,1.0413,1.0407,1.0424,1.0427,1.045,1.0467,1.0478,1.0511,1.0506,1.0542,1.0537,1.0557,1.0561,1.0574,1.0573,1.0577,1.0616,1.0562,1.0469,1.0462,1.0578,1.0578,1.0579,0,1.0302,1.0316,1.0308,1.0317,1.0358,1.0353,1.0369,1.0394,1.04,1.0414,1.0419,1.0432,1.0439,1.0448,1.0483,1.0506,1.0474,1.0513,1.0489,1.0488,1.0481,1.0481,1.0389,1.0481,1.0481,1.0481,1.0481,0,1.0232,1.022,1.0274,1.0269,1.0257,1.03,1.0287,1.0308,1.0329,1.033,1.0371,1.037,1.0416,1.042,1.0447,1.0439,1.0442,1.0456,1.0464,1.0453,1.0452,1.0458,1.0463,1.0479,1.048,1.048,1.048,0,1.0144,1.018,1.0175,1.0214,1.0224,1.0213,1.0246,1.0243,1.0269,1.0268,1.0271,1.031,1.0317,1.0353,1.0368,1.0386,1.0369,1.0383,1.0362,1.0368,1.0342,1.0345,1.0253,1.0243,1.0339,1.0338,1.0337,0,1.0098,1.009,1.0129,1.0133,1.0147,1.0152,1.016,1.0201,1.0207,1.0233,1.0227,1.0238,1.0249,1.0257,1.0287,1.0299,1.0314,1.0281,1.0317,1.0307,1.0316,1.0317,1.0317,1.0274,1.0273,1.0272,1.0271,0,1.0014,1.0032,1.0042,1.0057,1.0065,1.008,1.0096,1.0096,1.0143,1.0147,1.0155,1.0164,1.018,1.019,1.0207,1.0223,1.0255,1.026,1.0255,1.0245,1.0234,1.0242,1.0343,1.0262,1.0263,1.0263,1.0264,1.0264,0.9947,0.9943,0.997,0.9979,0.9996,1.0011,1.0011,1.0037,1.0045,1.0062,1.0085,1.0091,1.0115,1.0141,1.0155,1.0159,1.0177,1.017,1.0169,1.0167,1.0162,1.0232,1.0162,1.0163,1.0163,1.0163,1.0163,0,0.9866,0.9886,0.9894,0.9917,0.9924,0.9954,0.9974,0.9978,0.9983,1.0003,1.0013,1.0023,1.0033,1.0064,1.0077,1.0075,1.009,1.0077,1.0079,1.0082,1.0144,1.0148,1.0065,1.0065,1.0065,1.0065,1.0065,1.0065,0.9825,0.982,0.9842,0.9846,0.9866,0.9872,0.9882,0.9895,0.9912,0.9921,0.9931,0.9951,0.9975,0.9991,1.0002,1.001,1.0014,0.9997,1.001,1.0068,1.0078,1.0087,1.009,0.9997,0.9997,0.9948,0.9948,0.9948]}]]